Year,Month,Day,Hour,Minute,Value (Times are PST for temperature in C)
2007,06,27,06,43,12.60
2007,06,27,06,44,12.60
2007,06,27,06,45,12.60
2007,06,27,06,46,12.60
2007,06,27,06,47,12.50
2007,06,27,06,48,12.50
2007,06,27,06,49,12.50
2007,06,27,06,50,12.50
2007,06,27,06,51,12.50
2007,06,27,06,52,12.50
2007,06,27,06,53,12.50
2007,06,27,06,54,12.50
2007,06,27,06,55,12.50
2007,06,27,06,56,12.50
2007,06,27,06,57,12.50
2007,06,27,06,58,12.50
2007,06,27,06,59,12.50
2007,06,27,07,00,12.50
2007,06,27,07,01,12.50
2007,06,27,07,02,12.50
2007,06,27,07,03,12.50
2007,06,27,07,04,12.60
2007,06,27,07,05,12.70
2007,06,27,07,06,12.70
2007,06,27,07,07,12.80
2007,06,27,07,08,12.80
2007,06,27,07,09,12.80
2007,06,27,07,10,12.90
2007,06,27,07,11,12.90
2007,06,27,07,12,12.90
2007,06,27,07,13,13.00
2007,06,27,07,14,13.00
2007,06,27,07,15,13.00
2007,06,27,07,16,13.10
2007,06,27,07,17,13.10
2007,06,27,07,18,13.20
2007,06,27,07,19,13.20
2007,06,27,07,20,13.20
2007,06,27,07,21,13.30
2007,06,27,07,22,13.30
2007,06,27,07,23,13.30
2007,06,27,07,24,13.40
2007,06,27,07,25,13.40
2007,06,27,07,26,13.40
2007,06,27,07,27,13.50
2007,06,27,07,28,13.50
2007,06,27,07,29,13.60
2007,06,27,07,30,13.60
2007,06,27,07,31,13.70
2007,06,27,07,32,13.70
2007,06,27,07,33,13.80
2007,06,27,07,34,13.80
2007,06,27,07,35,13.90
2007,06,27,07,36,14.00
2007,06,27,07,37,14.10
2007,06,27,07,38,14.30
2007,06,27,07,39,14.40
2007,06,27,07,40,14.60
2007,06,27,07,41,14.70
2007,06,27,07,42,14.90
2007,06,27,07,43,15.00
2007,06,27,07,44,15.00
2007,06,27,07,45,15.10
2007,06,27,07,46,15.30
2007,06,27,07,47,15.40
2007,06,27,07,48,15.50
2007,06,27,07,49,15.50
2007,06,27,07,50,15.60
2007,06,27,07,51,15.70
2007,06,27,07,52,15.80
2007,06,27,07,53,15.90
2007,06,27,07,54,16.00
2007,06,27,07,55,16.10
2007,06,27,07,56,16.10
2007,06,27,07,57,16.20
2007,06,27,07,58,16.20
2007,06,27,07,59,16.20
2007,06,27,08,00,16.20
2007,06,27,08,01,16.30
2007,06,27,08,02,16.30
2007,06,27,08,03,16.30
2007,06,27,08,04,16.40
2007,06,27,08,05,16.50
2007,06,27,08,06,16.50
2007,06,27,08,07,16.60
2007,06,27,08,08,16.70
2007,06,27,08,09,16.70
2007,06,27,08,10,16.80
2007,06,27,08,11,16.80
2007,06,27,08,12,16.90
2007,06,27,08,13,17.00
2007,06,27,08,14,17.10
2007,06,27,08,15,17.10
2007,06,27,08,16,17.20
2007,06,27,08,17,17.20
2007,06,27,08,18,17.30
2007,06,27,08,19,17.30
2007,06,27,08,20,17.40
2007,06,27,08,21,17.40
2007,06,27,08,22,17.40
2007,06,27,08,23,17.50
2007,06,27,08,24,17.50
2007,06,27,08,25,17.60
2007,06,27,08,26,17.60
2007,06,27,08,27,17.70
2007,06,27,08,28,17.80
2007,06,27,08,29,17.80
2007,06,27,08,30,17.90
2007,06,27,08,31,17.90
2007,06,27,08,32,18.00
2007,06,27,08,33,18.00
2007,06,27,08,34,18.10
2007,06,27,08,35,18.10
2007,06,27,08,36,18.20
2007,06,27,08,37,18.10
2007,06,27,08,38,18.00
2007,06,27,08,39,17.90
2007,06,27,08,40,17.70
2007,06,27,08,41,17.50
2007,06,27,08,42,17.40
2007,06,27,08,43,17.30
2007,06,27,08,44,17.20
2007,06,27,08,45,17.20
2007,06,27,08,46,17.20
2007,06,27,08,47,17.30
2007,06,27,08,48,17.30
2007,06,27,08,49,17.30
2007,06,27,08,50,17.30
2007,06,27,08,51,17.30
2007,06,27,08,52,17.30
2007,06,27,08,53,17.30
2007,06,27,08,54,17.20
2007,06,27,08,55,17.20
2007,06,27,08,56,17.10
2007,06,27,08,57,17.10
2007,06,27,08,58,17.10
2007,06,27,08,59,17.10
2007,06,27,09,00,17.10
2007,06,27,09,01,17.00
2007,06,27,09,02,17.10
2007,06,27,09,03,17.10
2007,06,27,09,04,17.20
2007,06,27,09,05,17.20
2007,06,27,09,06,17.20
2007,06,27,09,07,17.20
2007,06,27,09,08,17.10
2007,06,27,09,09,17.10
2007,06,27,09,10,17.10
2007,06,27,09,11,17.10
2007,06,27,09,12,17.10
2007,06,27,09,13,17.10
2007,06,27,09,14,17.00
2007,06,27,09,15,17.00
2007,06,27,09,16,17.00
2007,06,27,09,17,17.00
2007,06,27,09,18,16.90
2007,06,27,09,19,16.80
2007,06,27,09,20,16.80
2007,06,27,09,21,16.80
2007,06,27,09,22,16.80
2007,06,27,09,23,16.80
2007,06,27,09,24,16.90
2007,06,27,09,25,16.90
2007,06,27,09,26,16.90
2007,06,27,09,27,16.80
2007,06,27,09,28,16.80
2007,06,27,09,29,16.80
2007,06,27,09,30,16.70
2007,06,27,09,31,16.60
2007,06,27,09,32,16.50
2007,06,27,09,33,16.40
2007,06,27,09,34,16.40
2007,06,27,09,35,16.40
2007,06,27,09,36,16.40
2007,06,27,09,37,16.40
2007,06,27,09,38,16.40
2007,06,27,09,39,16.50
2007,06,27,09,40,16.60
2007,06,27,09,41,16.70
2007,06,27,09,42,16.80
2007,06,27,09,43,16.90
2007,06,27,09,44,17.00
2007,06,27,09,45,17.00
2007,06,27,09,46,17.10
2007,06,27,09,47,17.20
2007,06,27,09,48,17.30
2007,06,27,09,49,17.30
2007,06,27,09,50,17.30
2007,06,27,09,51,17.40
2007,06,27,09,52,17.50
2007,06,27,09,53,17.60
2007,06,27,09,54,17.70
2007,06,27,09,55,17.70
2007,06,27,09,56,17.80
2007,06,27,09,57,17.80
2007,06,27,09,58,18.00
2007,06,27,09,59,18.10
2007,06,27,10,00,18.10
2007,06,27,10,01,18.10
2007,06,27,10,02,18.00
2007,06,27,10,03,17.90
2007,06,27,10,04,17.80
2007,06,27,10,05,17.60
2007,06,27,10,06,17.50
2007,06,27,10,07,17.50
2007,06,27,10,08,17.60
2007,06,27,10,09,17.60
2007,06,27,10,10,17.60
2007,06,27,10,11,17.70
2007,06,27,10,12,17.80
2007,06,27,10,13,17.70
2007,06,27,10,14,17.80
2007,06,27,10,15,17.90
2007,06,27,10,16,18.10
2007,06,27,10,17,18.20
2007,06,27,10,18,18.30
2007,06,27,10,19,18.40
2007,06,27,10,20,18.40
2007,06,27,10,21,18.40
2007,06,27,10,22,18.40
2007,06,27,10,23,18.20
2007,06,27,10,24,18.10
2007,06,27,10,25,17.90
2007,06,27,10,26,17.60
2007,06,27,10,27,17.60
2007,06,27,10,28,17.60
2007,06,27,10,29,17.60
2007,06,27,10,30,17.60
2007,06,27,10,31,17.50
2007,06,27,10,32,17.50
2007,06,27,10,33,17.40
2007,06,27,10,34,17.40
2007,06,27,10,35,17.40
2007,06,27,10,36,17.50
2007,06,27,10,37,17.60
2007,06,27,10,38,17.80
2007,06,27,10,39,17.90
2007,06,27,10,40,18.10
2007,06,27,10,41,18.20
2007,06,27,10,42,18.40
2007,06,27,10,43,18.50
2007,06,27,10,44,18.70
2007,06,27,10,45,18.80
2007,06,27,10,46,18.80
2007,06,27,10,47,18.80
2007,06,27,10,48,18.80
2007,06,27,10,49,18.80
2007,06,27,10,50,18.80
2007,06,27,10,51,18.90
2007,06,27,10,52,19.00
2007,06,27,10,53,19.10
2007,06,27,10,54,19.20
2007,06,27,10,55,19.30
2007,06,27,10,56,19.40
2007,06,27,10,57,19.50
2007,06,27,10,58,19.40
2007,06,27,10,59,19.30
2007,06,27,11,00,19.30
2007,06,27,11,01,19.10
2007,06,27,11,02,19.00
2007,06,27,11,03,18.90
2007,06,27,11,04,19.00
2007,06,27,11,05,19.00
2007,06,27,11,06,19.10
2007,06,27,11,07,19.20
2007,06,27,11,08,19.50
2007,06,27,11,09,19.60
2007,06,27,11,10,19.80
2007,06,27,11,11,19.80
2007,06,27,11,12,19.80
2007,06,27,11,13,19.90
2007,06,27,11,14,20.00
2007,06,27,11,15,20.10
2007,06,27,11,16,20.10
2007,06,27,11,17,20.00
2007,06,27,11,18,20.00
2007,06,27,11,19,20.00
2007,06,27,11,20,19.90
2007,06,27,11,21,19.80
2007,06,27,11,22,19.80
2007,06,27,11,23,19.70
2007,06,27,11,24,19.60
2007,06,27,11,25,19.70
2007,06,27,11,26,19.60
2007,06,27,11,27,19.60
2007,06,27,11,28,19.60
2007,06,27,11,29,19.60
2007,06,27,11,30,19.60
2007,06,27,11,31,19.60
2007,06,27,11,32,19.80
2007,06,27,11,33,19.90
2007,06,27,11,34,20.10
2007,06,27,11,35,20.00
2007,06,27,11,36,19.90
2007,06,27,11,37,19.80
2007,06,27,11,38,19.80
2007,06,27,11,39,19.80
2007,06,27,11,40,19.70
2007,06,27,11,41,19.60
2007,06,27,11,42,19.50
2007,06,27,11,43,19.40
2007,06,27,11,44,19.40
2007,06,27,11,45,19.40
2007,06,27,11,46,19.40
2007,06,27,11,47,19.40
2007,06,27,11,48,19.40
2007,06,27,11,49,19.50
2007,06,27,11,50,19.60
2007,06,27,11,51,19.50
2007,06,27,11,52,19.40
2007,06,27,11,53,19.20
2007,06,27,11,54,19.10
2007,06,27,11,55,19.00
2007,06,27,11,56,19.00
2007,06,27,11,57,18.90
2007,06,27,11,58,18.90
2007,06,27,11,59,18.80
2007,06,27,12,00,18.70
2007,06,27,12,01,18.60
2007,06,27,12,02,18.60
2007,06,27,12,03,18.60
2007,06,27,12,04,18.70
2007,06,27,12,05,18.90
2007,06,27,12,06,19.00
2007,06,27,12,07,19.10
2007,06,27,12,08,19.30
2007,06,27,12,09,19.30
2007,06,27,12,10,19.30
2007,06,27,12,11,19.40
2007,06,27,12,12,19.40
2007,06,27,12,13,19.40
2007,06,27,12,14,19.40
2007,06,27,12,15,19.50
2007,06,27,12,16,19.50
2007,06,27,12,17,19.60
2007,06,27,12,18,19.70
2007,06,27,12,19,19.70
2007,06,27,12,20,19.70
2007,06,27,12,21,19.80
2007,06,27,12,22,19.80
2007,06,27,12,23,19.80
2007,06,27,12,24,19.80
2007,06,27,12,25,19.70
2007,06,27,12,26,19.60
2007,06,27,12,27,19.40
2007,06,27,12,28,19.30
2007,06,27,12,29,19.30
2007,06,27,12,30,19.30
2007,06,27,12,31,19.30
2007,06,27,12,32,19.40
2007,06,27,12,33,19.50
2007,06,27,12,34,19.50
2007,06,27,12,35,19.60
2007,06,27,12,36,19.60
2007,06,27,12,37,19.70
2007,06,27,12,38,19.80
2007,06,27,12,39,19.90
2007,06,27,12,40,20.00
2007,06,27,12,41,20.10
2007,06,27,12,42,20.10
2007,06,27,12,43,20.10
2007,06,27,12,44,20.10
2007,06,27,12,45,20.10
2007,06,27,12,46,20.00
2007,06,27,12,47,20.00
2007,06,27,12,48,19.90
2007,06,27,12,49,19.80
2007,06,27,12,50,19.60
2007,06,27,12,51,19.50
2007,06,27,12,52,19.40
2007,06,27,12,53,19.40
2007,06,27,12,54,19.40
2007,06,27,12,55,19.40
2007,06,27,12,56,19.40
2007,06,27,12,57,19.40
2007,06,27,12,58,19.40
2007,06,27,12,59,19.40
2007,06,27,13,00,19.40
2007,06,27,13,01,19.50
2007,06,27,13,02,19.60
2007,06,27,13,03,19.80
2007,06,27,13,04,19.90
2007,06,27,13,05,19.90
2007,06,27,13,06,19.90
2007,06,27,13,07,19.80
2007,06,27,13,08,19.80
2007,06,27,13,09,19.80
2007,06,27,13,10,19.80
2007,06,27,13,11,19.80
2007,06,27,13,12,19.80
2007,06,27,13,13,19.70
2007,06,27,13,14,19.50
2007,06,27,13,15,19.50
2007,06,27,13,16,19.50
2007,06,27,13,17,19.60
2007,06,27,13,18,19.60
2007,06,27,13,19,19.60
2007,06,27,13,20,19.70
2007,06,27,13,21,19.70
2007,06,27,13,22,19.70
2007,06,27,13,23,19.80
2007,06,27,13,24,19.80
2007,06,27,13,25,19.90
2007,06,27,13,26,19.90
2007,06,27,13,27,19.90
2007,06,27,13,28,20.00
2007,06,27,13,29,20.00
2007,06,27,13,30,20.00
2007,06,27,13,31,20.00
2007,06,27,13,32,20.00
2007,06,27,13,33,20.00
2007,06,27,13,34,20.10
2007,06,27,13,35,20.00
2007,06,27,13,36,19.90
2007,06,27,13,37,19.80
2007,06,27,13,38,19.70
2007,06,27,13,39,19.60
2007,06,27,13,40,19.60
2007,06,27,13,41,19.50
2007,06,27,13,42,19.50
2007,06,27,13,43,19.50
2007,06,27,13,44,19.40
2007,06,27,13,45,19.40
2007,06,27,13,46,19.40
2007,06,27,13,47,19.40
2007,06,27,13,48,19.50
2007,06,27,13,49,19.50
2007,06,27,13,50,19.50
2007,06,27,13,51,19.50
2007,06,27,13,52,19.50
2007,06,27,13,53,19.40
2007,06,27,13,54,19.40
2007,06,27,13,55,19.40
2007,06,27,13,56,19.30
2007,06,27,13,57,19.30
2007,06,27,13,58,19.30
2007,06,27,13,59,19.30
2007,06,27,14,00,19.30
2007,06,27,14,01,19.40
2007,06,27,14,02,19.40
2007,06,27,14,03,19.50
2007,06,27,14,04,19.60
2007,06,27,14,05,19.70
2007,06,27,14,06,19.70
2007,06,27,14,07,19.70
2007,06,27,14,08,19.70
2007,06,27,14,09,19.70
2007,06,27,14,10,19.60
2007,06,27,14,11,19.60
2007,06,27,14,12,19.60
2007,06,27,14,13,19.50
2007,06,27,14,14,19.50
2007,06,27,14,15,19.50
2007,06,27,14,16,19.50
2007,06,27,14,17,19.50
2007,06,27,14,18,19.50
2007,06,27,14,19,19.60
2007,06,27,14,20,19.60
2007,06,27,14,21,19.60
2007,06,27,14,22,19.60
2007,06,27,14,23,19.60
2007,06,27,14,24,19.50
2007,06,27,14,25,19.50
2007,06,27,14,26,19.50
2007,06,27,14,27,19.60
2007,06,27,14,28,19.80
2007,06,27,14,29,19.90
2007,06,27,14,30,20.00
2007,06,27,14,31,20.10
2007,06,27,14,32,20.10
2007,06,27,14,33,20.10
2007,06,27,14,34,20.00
2007,06,27,14,35,19.90
2007,06,27,14,36,19.90
2007,06,27,14,37,19.90
2007,06,27,14,38,19.90
2007,06,27,14,39,19.90
2007,06,27,14,40,19.90
2007,06,27,14,41,19.90
2007,06,27,14,42,19.90
2007,06,27,14,43,19.80
2007,06,27,14,44,19.80
2007,06,27,14,45,19.70
2007,06,27,14,46,19.70
2007,06,27,14,47,19.70
2007,06,27,14,48,19.70
2007,06,27,14,49,19.70
2007,06,27,14,50,19.80
2007,06,27,14,51,19.90
2007,06,27,14,52,20.00
2007,06,27,14,53,20.00
2007,06,27,14,54,19.90
2007,06,27,14,55,19.80
2007,06,27,14,56,19.80
2007,06,27,14,57,19.90
2007,06,27,14,58,19.90
2007,06,27,14,59,19.80
2007,06,27,15,00,19.80
2007,06,27,15,01,19.80
2007,06,27,15,02,19.80
2007,06,27,15,03,19.80
2007,06,27,15,04,19.80
2007,06,27,15,05,19.90
2007,06,27,15,06,20.00
2007,06,27,15,07,20.00
2007,06,27,15,08,20.00
2007,06,27,15,09,20.10
2007,06,27,15,10,20.10
2007,06,27,15,11,20.00
2007,06,27,15,12,19.90
2007,06,27,15,13,19.80
2007,06,27,15,14,19.70
2007,06,27,15,15,19.70
2007,06,27,15,16,19.60
2007,06,27,15,17,19.50
2007,06,27,15,18,19.40
2007,06,27,15,19,19.40
2007,06,27,15,20,19.30
2007,06,27,15,21,19.30
2007,06,27,15,22,19.40
2007,06,27,15,23,19.40
2007,06,27,15,24,19.40
2007,06,27,15,25,19.50
2007,06,27,15,26,19.50
2007,06,27,15,27,19.60
2007,06,27,15,28,19.60
2007,06,27,15,29,19.60
2007,06,27,15,30,19.50
2007,06,27,15,31,19.40
2007,06,27,15,32,19.30
2007,06,27,15,33,19.30
2007,06,27,15,34,19.30
2007,06,27,15,35,19.20
2007,06,27,15,36,19.20
2007,06,27,15,37,19.20
2007,06,27,15,38,19.30
2007,06,27,15,39,19.30
2007,06,27,15,40,19.30
2007,06,27,15,41,19.30
2007,06,27,15,42,19.30
2007,06,27,15,43,19.20
2007,06,27,15,44,19.20
2007,06,27,15,45,19.20
2007,06,27,15,46,19.30
2007,06,27,15,47,19.30
2007,06,27,15,48,19.30
2007,06,27,15,49,19.30
2007,06,27,15,50,19.40
2007,06,27,15,51,19.40
2007,06,27,15,52,19.40
2007,06,27,15,53,19.40
2007,06,27,15,54,19.40
2007,06,27,15,55,19.40
2007,06,27,15,56,19.40
2007,06,27,15,57,19.40
2007,06,27,15,58,19.40
2007,06,27,15,59,19.40
2007,06,27,16,00,19.40
2007,06,27,16,01,19.40
2007,06,27,16,02,19.40
2007,06,27,16,03,19.50
2007,06,27,16,04,19.40
2007,06,27,16,05,19.40
2007,06,27,16,06,19.40
2007,06,27,16,07,19.30
2007,06,27,16,08,19.20
2007,06,27,16,09,19.10
2007,06,27,16,10,19.10
2007,06,27,16,11,19.10
2007,06,27,16,12,19.10
2007,06,27,16,13,19.10
2007,06,27,16,14,19.00
2007,06,27,16,15,18.90
2007,06,27,16,16,18.80
2007,06,27,16,17,18.80
2007,06,27,16,18,18.80
2007,06,27,16,19,18.90
2007,06,27,16,20,18.90
2007,06,27,16,21,18.90
2007,06,27,16,22,18.90
2007,06,27,16,23,19.00
2007,06,27,16,24,19.00
2007,06,27,16,25,19.00
2007,06,27,16,26,19.10
2007,06,27,16,27,19.10
2007,06,27,16,28,19.10
2007,06,27,16,29,19.10
2007,06,27,16,30,19.10
2007,06,27,16,31,19.10
2007,06,27,16,32,19.10
2007,06,27,16,33,19.00
2007,06,27,16,34,19.00
2007,06,27,16,35,19.00
2007,06,27,16,36,18.90
2007,06,27,16,37,19.00
2007,06,27,16,38,19.10
2007,06,27,16,39,19.20
2007,06,27,16,40,19.20
2007,06,27,16,41,19.20
2007,06,27,16,42,19.20
2007,06,27,16,43,19.20
2007,06,27,16,44,19.20
2007,06,27,16,45,19.20
2007,06,27,16,46,19.20
2007,06,27,16,47,19.30
2007,06,27,16,48,19.30
2007,06,27,16,49,19.40
2007,06,27,16,50,19.30
2007,06,27,16,51,19.20
2007,06,27,16,52,19.20
2007,06,27,16,53,19.10
2007,06,27,16,54,19.10
2007,06,27,16,55,19.10
2007,06,27,16,56,19.20
2007,06,27,16,57,19.30
2007,06,27,16,58,19.40
2007,06,27,16,59,19.50
2007,06,27,17,00,19.70
2007,06,27,17,01,19.70
2007,06,27,17,02,19.70
2007,06,27,17,03,19.60
2007,06,27,17,04,19.50
2007,06,27,17,05,19.50
2007,06,27,17,06,19.50
2007,06,27,17,07,19.60
2007,06,27,17,08,19.60
2007,06,27,17,09,19.60
2007,06,27,17,10,19.70
2007,06,27,17,11,19.80
2007,06,27,17,12,19.90
2007,06,27,17,13,20.00
2007,06,27,17,14,20.10
2007,06,27,17,15,20.10
2007,06,27,17,16,20.20
2007,06,27,17,17,20.10
2007,06,27,17,18,20.10
2007,06,27,17,19,20.10
2007,06,27,17,20,20.00
2007,06,27,17,21,20.10
2007,06,27,17,22,20.10
2007,06,27,17,23,20.10
2007,06,27,17,24,20.20
2007,06,27,17,25,20.30
2007,06,27,17,26,20.20
2007,06,27,17,27,20.20
2007,06,27,17,28,20.10
2007,06,27,17,29,20.00
2007,06,27,17,30,19.90
2007,06,27,17,31,19.90
2007,06,27,17,32,19.80
2007,06,27,17,33,19.80
2007,06,27,17,34,19.80
2007,06,27,17,35,19.80
2007,06,27,17,36,19.90
2007,06,27,17,37,19.90
2007,06,27,17,38,19.90
2007,06,27,17,39,19.90
2007,06,27,17,40,19.90
2007,06,27,17,41,19.90
2007,06,27,17,42,20.00
2007,06,27,17,43,19.90
2007,06,27,17,44,19.90
2007,06,27,17,45,19.90
2007,06,27,17,46,19.90
2007,06,27,17,47,20.00
2007,06,27,17,48,19.90
2007,06,27,17,49,19.80
2007,06,27,17,50,19.80
2007,06,27,17,51,19.70
2007,06,27,17,52,19.60
2007,06,27,17,53,19.60
2007,06,27,17,54,19.50
2007,06,27,17,55,19.50
2007,06,27,17,56,19.40
2007,06,27,17,57,19.30
2007,06,27,17,58,19.30
2007,06,27,17,59,19.20
2007,06,27,18,00,19.10
2007,06,27,18,01,19.10
2007,06,27,18,02,19.00
2007,06,27,18,03,19.00
2007,06,27,18,04,19.00
2007,06,27,18,05,19.00
2007,06,27,18,06,19.00
2007,06,27,18,07,19.10
2007,06,27,18,08,19.10
2007,06,27,18,09,19.10
2007,06,27,18,10,19.10
2007,06,27,18,11,19.10
2007,06,27,18,12,19.10
2007,06,27,18,13,19.10
2007,06,27,18,14,19.10
2007,06,27,18,15,19.00
2007,06,27,18,16,19.00
2007,06,27,18,17,18.90
2007,06,27,18,18,18.90
2007,06,27,18,19,18.90
2007,06,27,18,20,18.90
2007,06,27,18,21,18.90
2007,06,27,18,22,18.90
2007,06,27,18,23,18.90
2007,06,27,18,24,18.80
2007,06,27,18,25,18.80
2007,06,27,18,26,18.80
2007,06,27,18,27,18.70
2007,06,27,18,28,18.70
2007,06,27,18,29,18.70
2007,06,27,18,30,18.70
2007,06,27,18,31,18.70
2007,06,27,18,32,18.70
2007,06,27,18,33,18.70
2007,06,27,18,34,18.80
2007,06,27,18,35,18.80
2007,06,27,18,36,18.80
2007,06,27,18,37,18.70
2007,06,27,18,38,18.70
2007,06,27,18,39,18.60
2007,06,27,18,40,18.60
2007,06,27,18,41,18.60
2007,06,27,18,42,18.50
2007,06,27,18,43,18.50
2007,06,27,18,44,18.50
2007,06,27,18,45,18.50
2007,06,27,18,46,18.50
2007,06,27,18,47,18.40
2007,06,27,18,48,18.40
2007,06,27,18,49,18.30
2007,06,27,18,50,18.30
2007,06,27,18,51,18.20
2007,06,27,18,52,18.10
2007,06,27,18,53,18.10
2007,06,27,18,54,18.10
2007,06,27,18,55,18.10
2007,06,27,18,56,18.10
2007,06,27,18,57,18.10
2007,06,27,18,58,18.10
2007,06,27,18,59,18.10
2007,06,27,19,00,18.10
2007,06,27,19,01,18.10
2007,06,27,19,02,18.10
2007,06,27,19,03,18.10
2007,06,27,19,04,18.10
2007,06,27,19,05,18.00
2007,06,27,19,06,18.00
2007,06,27,19,07,17.90
2007,06,27,19,08,17.90
2007,06,27,19,09,17.90
2007,06,27,19,10,17.90
2007,06,27,19,11,17.90
2007,06,27,19,12,17.90
2007,06,27,19,13,17.80
2007,06,27,19,14,17.80
2007,06,27,19,15,17.70
2007,06,27,19,16,17.70
2007,06,27,19,17,17.60
2007,06,27,19,18,17.60
2007,06,27,19,19,17.60
2007,06,27,19,20,17.60
2007,06,27,19,21,17.60
2007,06,27,19,22,17.60
2007,06,27,19,23,17.60
2007,06,27,19,24,17.60
2007,06,27,19,25,17.60
2007,06,27,19,26,17.50
2007,06,27,19,27,17.50
2007,06,27,19,28,17.50
2007,06,27,19,29,17.40
2007,06,27,19,30,17.40
2007,06,27,19,31,17.40
2007,06,27,19,32,17.40
2007,06,27,19,33,17.40
2007,06,27,19,34,17.30
2007,06,27,19,35,17.20
2007,06,27,19,36,17.20
2007,06,27,19,37,17.10
2007,06,27,19,38,17.10
2007,06,27,19,39,17.00
2007,06,27,19,40,17.00
2007,06,27,19,41,16.90
2007,06,27,19,42,16.90
2007,06,27,19,43,16.80
2007,06,27,19,44,16.80
2007,06,27,19,45,16.80
2007,06,27,19,46,16.80
2007,06,27,19,47,16.80
2007,06,27,19,48,16.70
2007,06,27,19,49,16.70
2007,06,27,19,50,16.70
2007,06,27,19,51,16.60
2007,06,27,19,52,16.50
2007,06,27,19,53,16.50
2007,06,27,19,54,16.40
2007,06,27,19,55,16.40
2007,06,27,19,56,16.40
2007,06,27,19,57,16.40
2007,06,27,19,58,16.40
2007,06,27,19,59,16.30
2007,06,27,20,00,16.30
2007,06,27,20,01,16.30
2007,06,27,20,02,16.20
2007,06,27,20,03,16.20
2007,06,27,20,04,16.10
2007,06,27,20,05,16.10
2007,06,27,20,06,16.00
2007,06,27,20,07,16.10
2007,06,27,20,08,16.10
2007,06,27,20,09,16.10
2007,06,27,20,10,16.10
2007,06,27,20,11,16.10
2007,06,27,20,12,16.10
2007,06,27,20,13,16.20
2007,06,27,20,14,16.20
2007,06,27,20,15,16.20
2007,06,27,20,16,16.20
2007,06,27,20,17,16.20
2007,06,27,20,18,16.20
2007,06,27,20,19,16.20
2007,06,27,20,20,16.20
2007,06,27,20,21,16.20
2007,06,27,20,22,16.20
2007,06,27,20,23,16.20
2007,06,27,20,24,16.20
2007,06,27,20,25,16.20
2007,06,27,20,26,16.20
2007,06,27,20,27,16.20
2007,06,27,20,28,16.20
2007,06,27,20,29,16.10
2007,06,27,20,30,16.10
2007,06,27,20,31,16.10
2007,06,27,20,32,16.10
2007,06,27,20,33,16.10
2007,06,27,20,34,16.10
2007,06,27,20,35,16.10
2007,06,27,20,36,16.10
2007,06,27,20,37,16.10
2007,06,27,20,38,16.10
2007,06,27,20,39,16.00
2007,06,27,20,40,16.00
2007,06,27,20,41,16.00
2007,06,27,20,42,15.90
2007,06,27,20,43,15.90
2007,06,27,20,44,15.90
2007,06,27,20,45,15.90
2007,06,27,20,46,15.80
2007,06,27,20,47,15.80
2007,06,27,20,48,15.80
2007,06,27,20,49,15.70
2007,06,27,20,50,15.70
2007,06,27,20,51,15.70
2007,06,27,20,52,15.70
2007,06,27,20,53,15.70
2007,06,27,20,54,15.70
2007,06,27,20,55,15.60
2007,06,27,20,56,15.60
2007,06,27,20,57,15.60
2007,06,27,20,58,15.60
2007,06,27,20,59,15.60
2007,06,27,21,00,15.60
2007,06,27,21,01,15.60
2007,06,27,21,02,15.60
2007,06,27,21,03,15.60
2007,06,27,21,04,15.60
2007,06,27,21,05,15.60
2007,06,27,21,06,15.60
2007,06,27,21,07,15.60
2007,06,27,21,08,15.60
2007,06,27,21,09,15.60
2007,06,27,21,10,15.60
2007,06,27,21,11,15.60
2007,06,27,21,12,15.60
2007,06,27,21,13,15.60
2007,06,27,21,14,15.60
2007,06,27,21,15,15.60
2007,06,27,21,16,15.70
2007,06,27,21,17,15.70
2007,06,27,21,18,15.80
2007,06,27,21,19,15.80
2007,06,27,21,20,15.80
2007,06,27,21,21,15.80
2007,06,27,21,22,15.70
2007,06,27,21,23,15.70
2007,06,27,21,24,15.70
2007,06,27,21,25,15.60
2007,06,27,21,26,15.60
2007,06,27,21,27,15.50
2007,06,27,21,28,15.50
2007,06,27,21,29,15.40
2007,06,27,21,30,15.30
2007,06,27,21,31,15.20
2007,06,27,21,32,15.10
2007,06,27,21,33,15.10
2007,06,27,21,34,15.00
2007,06,27,21,35,15.00
2007,06,27,21,36,15.00
2007,06,27,21,37,15.00
2007,06,27,21,38,15.00
2007,06,27,21,39,15.00
2007,06,27,21,40,15.00
2007,06,27,21,41,15.00
2007,06,27,21,42,15.00
2007,06,27,21,43,15.00
2007,06,27,21,44,15.00
2007,06,27,21,45,15.00
2007,06,27,21,46,15.00
2007,06,27,21,47,15.00
2007,06,27,21,48,15.00
2007,06,27,21,49,14.90
2007,06,27,21,50,14.80
2007,06,27,21,51,14.80
2007,06,27,21,52,14.70
2007,06,27,21,53,14.70
2007,06,27,21,54,14.60
2007,06,27,21,55,14.60
2007,06,27,21,56,14.60
2007,06,27,21,57,14.50
2007,06,27,21,58,14.50
2007,06,27,21,59,14.40
2007,06,27,22,00,14.40
2007,06,27,22,01,14.40
2007,06,27,22,02,14.40
2007,06,27,22,03,14.50
2007,06,27,22,04,14.50
2007,06,27,22,05,14.50
2007,06,27,22,06,14.40
2007,06,27,22,07,14.40
2007,06,27,22,08,14.40
2007,06,27,22,09,14.40
2007,06,27,22,10,14.40
2007,06,27,22,11,14.40
2007,06,27,22,12,14.50
2007,06,27,22,13,14.50
2007,06,27,22,14,14.50
2007,06,27,22,15,14.50
2007,06,27,22,16,14.50
2007,06,27,22,17,14.50
2007,06,27,22,18,14.50
2007,06,27,22,19,14.50
2007,06,27,22,20,14.50
2007,06,27,22,21,14.40
2007,06,27,22,22,14.40
2007,06,27,22,23,14.40
2007,06,27,22,24,14.40
2007,06,27,22,25,14.40
2007,06,27,22,26,14.40
2007,06,27,22,27,14.40
2007,06,27,22,28,14.40
2007,06,27,22,29,14.40
2007,06,27,22,30,14.40
2007,06,27,22,31,14.40
2007,06,27,22,32,14.40
2007,06,27,22,33,14.40
2007,06,27,22,34,14.50
2007,06,27,22,35,14.60
2007,06,27,22,36,14.70
2007,06,27,22,37,14.80
2007,06,27,22,38,14.80
2007,06,27,22,39,14.90
2007,06,27,22,40,14.90
2007,06,27,22,41,14.90
2007,06,27,22,42,14.90
2007,06,27,22,43,14.90
2007,06,27,22,44,14.80
2007,06,27,22,45,14.80
2007,06,27,22,46,14.70
2007,06,27,22,47,14.60
2007,06,27,22,48,14.50
2007,06,27,22,49,14.50
2007,06,27,22,50,14.50
2007,06,27,22,51,14.50
2007,06,27,22,52,14.50
2007,06,27,22,53,14.40
2007,06,27,22,54,14.40
2007,06,27,22,55,14.40
2007,06,27,22,56,14.40
2007,06,27,22,57,14.40
2007,06,27,22,58,14.40
2007,06,27,22,59,14.40
2007,06,27,23,00,14.30
2007,06,27,23,01,14.30
2007,06,27,23,02,14.30
2007,06,27,23,03,14.30
2007,06,27,23,04,14.30
2007,06,27,23,05,14.30
2007,06,27,23,06,14.30
2007,06,27,23,07,14.20
2007,06,27,23,08,14.20
2007,06,27,23,09,14.20
2007,06,27,23,10,14.20
2007,06,27,23,11,14.20
2007,06,27,23,12,14.20
2007,06,27,23,13,14.20
2007,06,27,23,14,14.30
2007,06,27,23,15,14.30
2007,06,27,23,16,14.30
2007,06,27,23,17,14.30
2007,06,27,23,18,14.30
2007,06,27,23,19,14.30
2007,06,27,23,20,14.30
2007,06,27,23,21,14.30
2007,06,27,23,22,14.30
2007,06,27,23,23,14.20
2007,06,27,23,24,14.20
2007,06,27,23,25,14.20
2007,06,27,23,26,14.20
2007,06,27,23,27,14.10
2007,06,27,23,28,14.10
2007,06,27,23,29,14.10
2007,06,27,23,30,14.00
2007,06,27,23,31,14.00
2007,06,27,23,32,14.00
2007,06,27,23,33,13.90
2007,06,27,23,34,13.90
2007,06,27,23,35,13.90
2007,06,27,23,36,13.90
2007,06,27,23,37,13.90
2007,06,27,23,38,13.90
2007,06,27,23,39,13.90
2007,06,27,23,40,13.90
2007,06,27,23,41,13.90
2007,06,27,23,42,13.90
2007,06,27,23,43,13.90
2007,06,27,23,44,14.00
2007,06,27,23,45,14.00
2007,06,27,23,46,14.00
2007,06,27,23,47,14.10
2007,06,27,23,48,14.10
2007,06,27,23,49,14.20
2007,06,27,23,50,14.20
2007,06,27,23,51,14.30
2007,06,27,23,52,14.40
2007,06,27,23,53,14.50
2007,06,27,23,54,14.70
2007,06,27,23,55,14.70
2007,06,27,23,56,14.80
2007,06,27,23,57,14.80
2007,06,27,23,58,14.70
2007,06,27,23,59,14.60
